FW9002 Weather Reports


time (UTC)temp
F
wind
direction
speed
knots
gust
knots
rain 1hr
in
rain 24hr
in
rain mn
in
humidity
%
barometer
mb
20260903154154 83 146 0.0 0.0 0.00 0.00 0.00 57 1015.4
20260903153649 83 73 0.9 0.9 0.00 0.00 0.00 57 1015.5
20260903153145 82 356 0.0 0.0 0.00 0.00 0.00 58 1015.4
20260903152641 82 356 0.0 0.0 0.00 0.00 0.00 59 1015.4
20260903152137 82 356 0.0 0.0 0.00 0.00 0.00 60 1015.4
20260903151636 82 357 0.0 0.0 0.00 0.00 0.00 60 1015.5
20260903151131 82 358 0.9 0.9 0.00 0.00 0.00 59 1015.5
20260903150626 82 358 0.0 0.0 0.00 0.00 0.00 59 1015.3
20260903150121 82 358 0.0 0.0 0.00 0.00 0.00 60 1015.5
20260903145620 81 358 0.0 0.0 0.00 0.00 0.00 61 1015.2
20260903145115 81 358 0.9 0.9 0.00 0.00 0.00 62 1015.4
20260903144614 80 296 0.0 0.0 0.00 0.00 0.00 63 1015.5
20260903144111 80 320 0.9 0.9 0.00 0.00 0.00 62 1015.0
20260903143607 80 303 0.9 0.9 0.00 0.00 0.00 62 1015.4
20260903143102 80 298 0.0 0.0 0.00 0.00 0.00 61 1015.4
20260903142557 80 332 0.9 0.9 0.00 0.00 0.00 60 1015.4
20260903142054 80 252 0.9 1.7 0.00 0.00 0.00 60 1015.2
20260903141549 80 278 0.9 0.9 0.00 0.00 0.00 60 1015.3
20260903141044 80 288 0.9 0.9 0.00 0.00 0.00 59 1015.2
20260903140540 80 288 0.0 0.0 0.00 0.00 0.00 59 1015.2
20260903140035 80 287 0.0 0.0 0.00 0.00 0.00 59 1015.2
20260903135530 80 295 0.0 0.0 0.00 0.00 0.00 61 1015.3
20260903135025 80 295 0.0 0.0 0.00 0.00 0.00 62 1015.4
20260903134525 80 324 0.9 0.9 0.00 0.00 0.00 61 1015.0
20260903134021 79 335 0.9 0.9 0.00 0.00 0.00 62 1015.0
20260903133518 79 93 0.0 0.9 0.00 0.00 0.00 66 1015.0
20260903133013 78 92 0.0 0.0 0.00 0.00 0.00 68 1015.0
20260903132508 78 92 0.0 0.0 0.00 0.00 0.00 68 1015.0
20260903132003 78 93 0.0 0.0 0.00 0.00 0.00 69 1014.9
20260903131458 78 93 0.0 0.0 0.00 0.00 0.00 70 1014.8
20260903130956 78 93 0.0 0.0 0.00 0.00 0.00 68 1014.7
20260903130452 78 93 0.0 0.0 0.00 0.00 0.00 69 1014.7
20260903125951 78 93 0.0 0.0 0.00 0.00 0.00 68 1014.7
20260903125450 78 93 0.0 0.0 0.00 0.00 0.00 68 1014.6
20260903124945 78 93 0.0 0.0 0.00 0.00 0.00 67 1014.6
20260903124440 78 93 0.0 0.0 0.00 0.00 0.00 67 1014.6
20260903123939 78 93 0.0 0.0 0.00 0.00 0.00 68 1014.5
20260903123434 78 93 0.0 0.0 0.00 0.00 0.00 67 1014.4
20260903122932 78 93 0.0 0.0 0.00 0.00 0.00 66 1014.3
20260903122427 79 93 0.0 0.0 0.00 0.00 0.00 66 1014.3
20260903121925 79 93 0.0 0.0 0.00 0.00 0.00 66 1014.2
20260903121421 78 93 0.0 0.0 0.00 0.00 0.00 66 1014.4
20260903120917 78 92 0.0 0.0 0.00 0.00 0.00 67 1014.3
20260903120416 78 92 0.0 0.0 0.00 0.00 0.00 67 1014.3
20260903115915 79 92 0.0 0.0 0.00 0.00 0.00 67 1014.0
20260903115414 79 92 0.0 0.0 0.00 0.00 0.00 66 1014.0
20260903114909 79 92 0.0 0.0 0.00 0.00 0.00 66 1013.8
20260903114405 79 92 0.0 0.0 0.00 0.00 0.00 66 1014.0
20260903113901 79 92 0.0 0.0 0.00 0.00 0.00 66 1014.0
20260903113356 79 97 0.9 0.9 0.00 0.00 0.00 66 1014.1
20260903112852 79 103 0.0 0.0 0.00 0.00 0.00 66 1014.2
20260903112347 79 85 0.0 0.0 0.00 0.00 0.00 66 1014.0
20260903111846 79 92 0.0 0.0 0.00 0.00 0.00 65 1014.0
20260903111346 79 79 0.9 0.9 0.00 0.00 0.00 65 1014.2
20260903110842 79 73 0.9 0.9 0.00 0.00 0.00 65 1014.1
20260903110337 79 80 0.9 0.9 0.00 0.00 0.00 65 1014.2
20260903105832 79 85 0.9 0.9 0.00 0.00 0.00 66 1014.4
20260903105333 79 98 0.9 0.9 0.00 0.00 0.00 66 1013.9
20260903104832 79 92 0.0 0.9 0.00 0.00 0.00 66 1014.1
20260903104327 79 86 0.9 0.9 0.00 0.00 0.00 66 1014.1
20260903103824 79 79 1.7 1.7 0.00 0.00 0.00 66 1014.3
20260903103320 79 80 0.9 0.9 0.00 0.00 0.00 66 1014.2
20260903102815 79 78 0.9 0.9 0.00 0.00 0.00 66 1014.3
20260903102310 79 81 0.0 0.9 0.00 0.00 0.00 66 1014.3
20260903101809 79 83 0.0 0.0 0.00 0.00 0.00 66 1014.2
20260903101304 79 79 1.7 1.7 0.00 0.00 0.00 65 1014.3
20260903100759 79 84 0.9 0.9 0.00 0.00 0.00 66 1014.4
20260903100254 79 96 0.0 0.0 0.00 0.00 0.00 65 1014.1
20260903095751 79 104 0.9 0.9 0.00 0.00 0.00 65 1014.3
20260903095246 80 105 0.9 0.9 0.00 0.00 0.00 65 1014.2
20260903094741 80 116 0.0 0.0 0.00 0.00 0.00 65 1014.2
20260903094236 80 125 0.0 0.9 0.00 0.00 0.00 64 1014.3
20260903093731 80 123 0.0 0.0 0.00 0.00 0.00 64 1014.2
20260903093227 80 127 0.9 0.9 0.00 0.00 0.00 63 1014.2
20260903092726 80 124 0.9 0.9 0.00 0.00 0.00 63 1014.4
20260903092221 80 93 0.9 0.9 0.00 0.00 0.00 63 1014.4
20260903091720 80 117 0.9 0.9 0.00 0.00 0.00 63 1014.5
20260903091215 80 122 0.0 0.0 0.00 0.00 0.00 64 1014.3
20260903090710 80 122 0.0 0.0 0.00 0.00 0.00 63 1014.2
20260903090208 80 125 0.9 0.9 0.00 0.00 0.00 63 1014.2
20260903085707 80 122 0.0 0.0 0.00 0.00 0.00 63 1014.3
20260903085203 80 115 0.9 0.9 0.00 0.00 0.00 63 1014.3
20260903084700 80 109 0.0 0.0 0.00 0.00 0.00 63 1014.6
20260903084155 80 109 0.9 0.9 0.00 0.00 0.00 63 1014.4
20260903083652 80 98 0.0 0.9 0.00 0.00 0.00 63 1014.3
20260903083151 81 98 0.0 0.0 0.00 0.00 0.00 63 1014.3
20260903082645 81 126 0.9 0.9 0.00 0.00 0.00 62 1014.5
20260903082141 81 153 0.0 0.0 0.00 0.00 0.00 62 1014.3
20260903081636 81 154 0.0 0.0 0.00 0.00 0.00 62 1014.3
20260903081132 81 132 0.9 0.9 0.00 0.00 0.00 62 1014.3
20260903080628 81 125 0.0 0.0 0.00 0.00 0.00 62 1014.4
20260903080126 81 125 0.0 0.0 0.00 0.00 0.00 62 1014.6
20260903075624 81 194 0.0 0.0 0.00 0.00 0.00 62 1014.3
20260903075120 81 194 0.0 0.0 0.00 0.00 0.00 61 1014.4
20260903074619 82 195 0.9 0.9 0.00 0.00 0.00 60 1014.6
20260903074114 82 123 0.0 0.0 0.00 0.00 0.00 60 1014.3
20260903073609 82 134 1.7 2.6 0.00 0.00 0.00 60 1014.3
20260903073105 82 98 0.0 0.0 0.00 0.00 0.00 60 1014.4
20260903072601 82 122 0.9 0.9 0.00 0.00 0.00 59 1014.4
20260903072057 82 106 0.0 0.0 0.00 0.00 0.00 59 1014.5
20260903071554 82 102 0.9 0.9 0.00 0.00 0.00 59 1014.5
20260903071054 82 124 0.9 0.9 0.00 0.00 0.00 58 1014.3
20260903070554 82 129 2.6 1.7 0.00 0.00 0.00 58 1014.3
20260903070050 82 117 0.9 0.9 0.00 0.00 0.00 58 1014.2
20260903065548 82 112 0.9 0.9 0.00 0.00 0.00 58 1014.1
20260903065043 82 110 0.9 0.9 0.00 0.00 0.00 58 1014.2
20260903064543 82 112 0.9 0.9 0.00 0.00 0.00 57 1014.3
20260903064038 82 110 0.9 0.9 0.00 0.00 0.00 58 1014.3
20260903063533 82 103 0.0 0.0 0.00 0.00 0.00 58 1014.2
20260903063029 82 103 0.0 0.0 0.00 0.00 0.00 58 1014.2
20260903062524 82 103 0.0 0.0 0.00 0.00 0.00 58 1014.3
20260903062019 82 103 0.0 0.0 0.00 0.00 0.00 57 1014.1
20260903061514 82 105 0.0 0.0 0.00 0.00 0.00 56 1014.3
20260903061009 82 105 0.0 0.0 0.00 0.00 0.00 57 1014.1
20260903060503 82 105 0.0 0.0 0.00 0.00 0.00 56 1014.3
20260903060004 83 105 0.0 0.0 0.00 0.00 0.00 56 1014.1
20260903055501 83 105 0.0 0.9 0.00 0.00 0.00 55 1014.3
20260903055000 83 105 0.0 0.9 0.00 0.00 0.00 55 1014.1
20260903054455 83 105 0.0 0.0 0.00 0.00 0.00 54 1014.3
20260903053951 83 105 0.9 0.9 0.00 0.00 0.00 54 1014.4
20260903053450 83 105 0.9 0.9 0.00 0.00 0.00 53 1014.4
20260903052947 84 105 0.0 0.0 0.00 0.00 0.00 52 1014.3
20260903052443 84 132 0.9 0.9 0.00 0.00 0.00 52 1014.5
20260903051938 84 133 0.0 0.0 0.00 0.00 0.00 52 1014.4
20260903051433 84 123 0.0 0.0 0.00 0.00 0.00 51 1014.5
20260903050929 84 122 0.9 0.9 0.00 0.00 0.00 51 1014.4
20260903050428 84 134 0.0 0.0 0.00 0.00 0.00 51 1014.7
20260903045922 84 152 0.9 0.9 0.00 0.00 0.00 51 1014.5
20260903045418 84 109 0.9 0.9 0.00 0.00 0.00 51 1014.5
20260903044915 84 108 0.0 0.0 0.00 0.00 0.00 51 1014.4
20260903044415 84 108 0.0 0.0 0.00 0.00 0.00 51 1014.5
20260903043912 84 107 0.0 0.0 0.00 0.00 0.00 52 1014.3
20260903043407 84 107 0.0 0.0 0.00 0.00 0.00 51 1014.1
20260903042905 84 106 0.0 0.0 0.00 0.00 0.00 51 1014.0
20260903042401 84 112 0.0 0.0 0.00 0.00 0.00 51 1014.3
20260903041856 84 112 0.9 0.9 0.00 0.00 0.00 51 1014.1
20260903041352 84 112 0.0 0.0 0.00 0.00 0.00 51 1014.1
20260903040848 85 112 0.0 0.0 0.00 0.00 0.00 50 1014.0
20260903040347 85 117 1.7 1.7 0.00 0.00 0.00 50 1014.2
20260903035843 85 185 0.0 0.0 0.00 0.00 0.00 50 1014.1
20260903035338 85 131 0.9 0.9 0.00 0.00 0.00 49 1014.3
20260903034833 85 127 0.9 0.9 0.00 0.00 0.00 48 1014.2
20260903034329 86 88 0.9 0.9 0.00 0.00 0.00 47 1014.1
20260903033824 86 122 0.9 0.9 0.00 0.00 0.00 47 1014.0
20260903033319 86 120 0.9 0.9 0.00 0.00 0.00 47 1014.2
20260903032818 86 123 1.7 0.9 0.00 0.00 0.00 47 1013.8
20260903032315 86 113 1.7 1.7 0.00 0.00 0.00 48 1013.5
20260903031810 85 120 0.0 0.0 0.00 0.00 0.00 50 1013.6
20260903031309 85 121 1.7 0.9 0.00 0.00 0.00 50 1013.6
20260903030805 85 129 0.9 0.9 0.00 0.00 0.00 51 1013.5
20260903030301 84 129 0.0 0.0 0.00 0.00 0.00 52 1013.4
20260903025756 84 129 0.0 0.0 0.00 0.00 0.00 53 1013.5
20260903025252 84 129 0.0 0.0 0.00 0.00 0.00 52 1013.2
20260903024746 84 130 0.0 0.0 0.00 0.00 0.00 53 1013.1
20260903024245 84 130 0.0 0.0 0.00 0.00 0.00 53 1013.1
20260903023741 85 130 0.0 0.0 0.00 0.00 0.00 53 1013.0
20260903023237 85 133 0.0 0.0 0.00 0.00 0.00 52 1013.0
20260903022737 85 140 0.0 0.0 0.00 0.00 0.00 51 1012.9
20260903022235 85 141 0.9 0.9 0.00 0.00 0.00 51 1013.1
20260903021730 86 141 0.0 0.0 0.00 0.00 0.00 50 1012.8
20260903021225 86 141 0.0 0.0 0.00 0.00 0.00 49 1012.8
20260903020725 86 159 0.0 0.0 0.00 0.00 0.00 48 1012.8
20260903020220 86 159 0.0 0.0 0.00 0.00 0.00 47 1012.9
20260903015715 87 158 0.0 0.0 0.00 0.00 0.00 47 1013.0
20260903015211 87 155 0.9 0.9 0.00 0.00 0.00 47 1013.3
20260903014706 87 171 2.6 2.6 0.00 0.00 0.00 46 1013.1
20260903014205 87 203 1.7 1.7 0.00 0.00 0.00 46 1013.1
20260903013700 87 189 0.0 0.0 0.00 0.00 0.00 46 1012.9
20260903013200 88 199 0.9 0.9 0.00 0.00 0.00 45 1013.2
20260903012658 88 170 0.9 0.9 0.00 0.00 0.00 45 1012.7
20260903012158 88 194 0.9 0.9 0.00 0.00 0.00 44 1012.7
20260903011653 88 214 3.5 4.3 0.00 0.00 0.00 44 1012.7
20260903011152 88 212 1.7 1.7 0.00 0.00 0.00 44 1012.7
20260903010648 89 219 3.5 4.3 0.00 0.00 0.00 43 1012.8
20260903010147 89 201 2.6 2.6 0.00 0.00 0.00 43 1012.6
20260903005647 89 205 0.9 1.7 0.00 0.00 0.00 44 1012.5
20260903005142 89 238 4.3 5.2 0.00 0.00 0.00 43 1012.5
20260903004637 89 233 1.7 1.7 0.00 0.00 0.00 43 1012.6
20260903004132 89 232 2.6 4.3 0.00 0.00 0.00 43 1012.6
20260903003627 89 229 4.3 5.2 0.00 0.00 0.00 42 1012.6
20260903003117 89 227 2.6 4.3 0.00 0.00 0.00 40 1012.8
20260903002612 90 247 3.5 4.3 0.00 0.00 0.00 39 1012.8
20260903002112 90 235 2.6 4.3 0.00 0.00 0.00 40 1012.8
20260903001607 90 231 4.3 5.2 0.00 0.00 0.00 39 1012.7
20260903001101 90 243 4.3 6.1 0.00 0.00 0.00 39 1012.9
20260903000556 90 247 4.3 6.1 0.00 0.00 0.00 39 1012.8
20260903000050 91 228 2.6 2.6 0.00 0.00 0.00 38 1013.0
20260902235549 90 190 2.6 5.2 0.00 0.00 0.00 40 1012.7
20260902235044 91 245 4.3 4.3 0.00 0.00 0.00 39 1012.9
20260902234544 90 188 2.6 2.6 0.00 0.00 0.00 39 1012.7
20260902234043 91 185 3.5 5.2 0.00 0.00 0.00 39 1012.7
20260902233538 91 236 4.3 5.2 0.00 0.00 0.00 40 1012.9
20260902233032 92 238 2.6 4.3 0.00 0.00 0.00 38 1012.9
20260902232532 91 188 0.9 1.7 0.00 0.00 0.00 38 1012.8
20260902232026 92 232 3.5 4.3 0.00 0.00 0.00 38 1012.9
20260902231521 92 205 2.6 1.7 0.00 0.00 0.00 39 1013.1
20260902231021 92 167 2.6 2.6 0.00 0.00 0.00 38 1013.1
20260902230520 92 218 2.6 4.3 0.00 0.00 0.00 40 1013.0
20260902230015 93 192 6.1 7.8 0.00 0.00 0.00 37 1013.4
20260902225510 93 228 4.3 7.0 0.00 0.00 0.00 38 1013.1
20260902225004 93 221 4.3 5.2 0.00 0.00 0.00 37 1013.3
20260902224502 91 202 5.2 6.1 0.00 0.00 0.00 37 1013.0
20260902223954 91 174 1.7 1.7 0.00 0.00 0.00 38 1013.4
20260902223449 91 129 0.9 0.9 0.00 0.00 0.00 38 1013.3
20260902222948 91 185 3.5 4.3 0.00 0.00 0.00 37 1013.3
20260902222447 91 188 4.3 6.1 0.00 0.00 0.00 38 1013.3
20260902221947 91 208 4.3 5.2 0.00 0.00 0.00 39 1013.3
20260902221446 90 193 4.3 6.1 0.00 0.00 0.00 39 1013.3
20260902220942 91 200 6.1 7.0 0.00 0.00 0.00 41 1013.8
20260902220441 92 226 4.3 6.1 0.00 0.00 0.00 41 1013.5
20260902215936 91 317 0.9 0.9 0.00 0.00 0.00 39 1013.5
20260902215432 91 291 1.7 2.6 0.00 0.00 0.00 39 1013.5
20260902214928 91 287 0.9 0.9 0.00 0.00 0.00 39 1013.5
20260902214426 91 256 1.7 1.7 0.00 0.00 0.00 39 1013.5
20260902213921 91 293 1.7 1.7 0.00 0.00 0.00 40 1013.5
20260902213417 91 301 1.7 1.7 0.00 0.00 0.00 40 1013.5
20260902212915 92 342 0.9 0.9 0.00 0.00 0.00 39 1013.3
20260902212412 92 310 0.9 1.7 0.00 0.00 0.00 38 1013.4
20260902211908 92 313 4.3 6.1 0.00 0.00 0.00 39 1013.4
20260902211404 92 281 2.6 4.3 0.00 0.00 0.00 39 1013.8
20260902210859 92 280 2.6 2.6 0.00 0.00 0.00 38 1013.9
20260902210358 93 302 2.6 4.3 0.00 0.00 0.00 36 1014.1
20260902205857 93 17 0.0 0.0 0.00 0.00 0.00 36 1013.9
20260902205352 95 283 4.3 5.2 0.00 0.00 0.00 35 1013.9
20260902204848 95 277 2.6 1.7 0.00 0.00 0.00 35 1013.8
20260902204347 95 338 2.6 4.3 0.00 0.00 0.00 37 1014.0
20260902203843 95 7 1.7 1.7 0.00 0.00 0.00 36 1014.0
20260902203338 96 303 3.5 5.2 0.00 0.00 0.00 35 1014.2
20260902202832 97 253 2.6 2.6 0.00 0.00 0.00 35 1014.2
20260902202328 96 313 2.6 4.3 0.00 0.00 0.00 35 1014.1
20260902201825 96 41 3.5 5.2 0.00 0.00 0.00 36 1014.1
20260902201325 95 293 1.7 1.7 0.00 0.00 0.00 36 1014.0
20260902200820 96 278 4.3 5.2 0.00 0.00 0.00 35 1014.3
20260902200315 95 281 1.7 2.6 0.00 0.00 0.00 37 1014.3
20260902195810 95 306 2.6 2.6 0.00 0.00 0.00 37 1014.6
20260902195309 95 295 2.6 5.2 0.00 0.00 0.00 38 1014.4
20260902194804 95 309 0.9 0.9 0.00 0.00 0.00 39 1014.7
20260902194259 94 277 2.6 2.6 0.00 0.00 0.00 39 1014.6
20260902193754 95 316 2.6 4.3 0.00 0.00 0.00 37 1015.0
20260902193250 95 316 2.6 4.3 0.00 0.00 0.00 37 1015.0
20260902192749 95 274 2.6 2.6 0.00 0.00 0.00 38 1014.9
20260902192248 95 257 2.6 4.3 0.00 0.00 0.00 38 1015.3
20260902191747 95 292 0.9 1.7 0.00 0.00 0.00 38 1015.3
20260902191243 95 290 1.7 1.7 0.00 0.00 0.00 39 1015.3
20260902190738 95 313 2.6 2.6 0.00 0.00 0.00 39 1015.5
20260902190237 95 240 3.5 5.2 0.00 0.00 0.00 38 1015.7
20260902185733 94 284 3.5 4.3 0.00 0.00 0.00 38 1015.5
20260902185229 94 245 4.3 5.2 0.00 0.00 0.00 39 1015.7
20260902184724 94 296 1.7 1.7 0.00 0.00 0.00 39 1015.7
20260902184220 94 19 2.6 4.3 0.00 0.00 0.00 39 1015.7
20260902183716 93 258 1.7 0.9 0.00 0.00 0.00 42 1015.7
20260902183212 94 291 1.7 2.6 0.00 0.00 0.00 41 1016.0
20260902182708 94 357 3.5 4.3 0.00 0.00 0.00 40 1016.0
20260902182204 93 312 1.7 2.6 0.00 0.00 0.00 42 1016.1
20260902181659 93 303 2.6 2.6 0.00 0.00 0.00 41 1015.8
20260902181154 93 250 2.6 4.3 0.00 0.00 0.00 41 1016.0
20260902180654 93 306 1.7 2.6 0.00 0.00 0.00 43 1016.3
20260902180150 93 234 1.7 2.6 0.00 0.00 0.00 41 1016.0
20260902175649 92 276 0.9 1.7 0.00 0.00 0.00 42 1016.2
20260902175145 93 293 2.6 2.6 0.00 0.00 0.00 41 1016.2
20260902174641 92 284 2.6 4.3 0.00 0.00 0.00 42 1016.4
20260902174137 91 15 2.6 2.6 0.00 0.00 0.00 43 1016.4
20260902173632 92 327 3.5 5.2 0.00 0.00 0.00 44 1016.4
20260902173127 91 255 1.7 1.7 0.00 0.00 0.00 44 1016.3
20260902172621 92 171 1.7 0.9 0.00 0.00 0.00 44 1016.4
20260902172121 92 270 0.9 1.7 0.00 0.00 0.00 44 1016.7
20260902171616 92 243 1.7 1.7 0.00 0.00 0.00 43 1016.2
20260902171112 93 219 2.6 1.7 0.00 0.00 0.00 43 1016.3
20260902170608 92 85 0.0 0.0 0.00 0.00 0.00 44 1016.2
20260902170103 92 96 0.0 0.0 0.00 0.00 0.00 45 1016.6
20260902165603 92 79 1.7 0.9 0.00 0.00 0.00 44 1016.7
20260902165057 91 96 0.9 0.9 0.00 0.00 0.00 45 1016.7
20260902164553 91 134 1.7 2.6 0.00 0.00 0.00 45 1016.6
20260902164051 91 119 0.9 0.9 0.00 0.00 0.00 44 1016.7
20260902163547 92 191 3.5 4.3 0.00 0.00 0.00 44 1016.6
20260902163045 92 124 0.9 0.9 0.00 0.00 0.00 45 1016.9
20260902162539 90 94 0.0 0.0 0.00 0.00 0.00 46 1016.7
20260902162035 90 133 1.7 2.6 0.00 0.00 0.00 46 1016.8
20260902161535 91 82 0.9 0.9 0.00 0.00 0.00 47 1016.9
20260902161031 91 83 0.0 0.0 0.00 0.00 0.00 46 1016.9
20260902160526 90 97 0.0 0.0 0.00 0.00 0.00 47 1016.6
20260902160021 90 108 0.9 0.9 0.00 0.00 0.00 48 1016.7
20260902155514 89 105 0.0 0.0 0.00 0.00 0.00 47 1016.9
20260902155013 88 86 0.0 0.0 0.00 0.00 0.00 48 1016.6
20260902154509 88 91 1.7 1.7 0.00 0.00 0.00 51 1016.9